QPF
0.00 0.00 0.00 0.00 0.00 0.00 0.00 0.00 0.00 0.00 0.00 0.00 0.01 0.02 0.02 0.03 0.03 0.02 0.02 0.03 0.03 0.02 0.02 0.02 0.03 0.05 0.07 0.06 0.06 0.08 0.10 0.13 0.15 0.16 0.22 0.30 0.40 0.40 0.30 0.24 0.19 0.12 0.10 0.10
0.00 0.00 0.00 0.00 0.00 0.00 0.00 0.00 0.00 0.00 0.00 0.00 0.01 0.01 0.02 0.02 0.02 0.02 0.01 0.03 0.04 0.03 0.02 0.01 0.02 0.04 0.04 0.05 0.06 0.06 0.09 0.12 0.14 0.17 0.23 0.39 0.57 0.57 0.43 0.32 0.26 0.21 0.16 0.13
0.00 0.00 0.00 0.00 0.00 0.00 0.00 0.00 0.00 0.00 0.00 0.00 0.00 0.01 0.02 0.03 0.02 0.02 0.02 0.05 0.06 0.06 0.06 0.06 0.05 0.06 0.07 0.05 0.05 0.06 0.07 0.08 0.12 0.19 0.26 0.39 0.52 0.60 0.51 0.39 0.37 0.33 0.25 0.19
0.00 0.00 0.00 0.00 0.00 0.00 0.00 0.00 0.00 0.00 0.00 0.00 0.00 0.00 0.02 0.03 0.04 0.04 0.04 0.06 0.08 0.09 0.08 0.10 0.08 0.07 0.07 0.06 0.05 0.04 0.05 0.06 0.09 0.13 0.22 0.33 0.44 0.52 0.55 0.49 0.48 0.44 0.40 0.35
0.00 0.00 0.00 0.00 0.00 0.00 0.00 0.00 0.00 0.00 0.00 0.00 0.00 0.00 0.02 0.03 0.05 0.05 0.06 0.06 0.07 0.07 0.09 0.11 0.09 0.08 0.06 0.04 0.03 0.03 0.04 0.06 0.07 0.11 0.20 0.31 0.42 0.49 0.54 0.55 0.51 0.47 0.45 0.39
0.00 0.00 0.00 0.00 0.00 0.00 0.00 0.00 0.00 0.00 0.00 0.00 0.00 0.01 0.03 0.04 0.05 0.06 0.06 0.07 0.09 0.10 0.13 0.13 0.13 0.10 0.07 0.05 0.03 0.04 0.04 0.05 0.06 0.08 0.14 0.20 0.27 0.32 0.36 0.39 0.44 0.43 0.38 0.34
0.00 0.00 0.00 0.00 0.00 0.00 0.00 0.00 0.00 0.00 0.00 0.00 0.00 0.01 0.04 0.05 0.05 0.06 0.06 0.08 0.11 0.10 0.09 0.10 0.12 0.10 0.09 0.07 0.05 0.03 0.04 0.04 0.05 0.06 0.08 0.11 0.15 0.19 0.24 0.30 0.33 0.33 0.31 0.30
0.00 0.00 0.00 0.00 0.00 0.00 0.00 0.00 0.00 0.00 0.01 0.01 0.01 0.03 0.04 0.06 0.05 0.05 0.04 0.05 0.08 0.08 0.09 0.11 0.14 0.12 0.12 0.10 0.06 0.05 0.06 0.05 0.04 0.05 0.06 0.08 0.11 0.14 0.18 0.19 0.20 0.22 0.23 0.25
0.00 0.00 0.00 0.00 0.00 0.00 0.00 0.00 0.00 0.00 0.00 0.01 0.02 0.03 0.03 0.03 0.03 0.04 0.04 0.05 0.09 0.12 0.10 0.10 0.13 0.13 0.12 0.10 0.08 0.06 0.06 0.06 0.05 0.04 0.05 0.07 0.12 0.12 0.11 0.12 0.12 0.13 0.15 0.17
0.00 0.00 0.00 0.00 0.00 0.00 0.00 0.00 0.00 0.00 0.00 0.01 0.01 0.01 0.01 0.03 0.04 0.05 0.06 0.07 0.08 0.11 0.11 0.09 0.11 0.12 0.10 0.09 0.10 0.09 0.08 0.09 0.08 0.08 0.07 0.07 0.11 0.16 0.14 0.15 0.17 0.15 0.16 0.17
0.00 0.00 0.00 0.00 0.00 0.00 0.00 0.00 0.00 0.00 0.00 0.01 0.02 0.02 0.02 0.04 0.04 0.04 0.05 0.07 0.06 0.08 0.08 0.07 0.07 0.10 0.10 0.09 0.11 0.10 0.08 0.09 0.12 0.11 0.09 0.07 0.07 0.09 0.11 0.15 0.18 0.18 0.20 0.21
0.00 0.00 0.00 0.00 0.00 0.00 0.00 0.00 0.00 0.00 0.00 0.01 0.01 0.02 0.02 0.03 0.03 0.02 0.03 0.03 0.03 0.04 0.05 0.06 0.05 0.05 0.05 0.06 0.07 0.07 0.06 0.06 0.08 0.07 0.08 0.08 0.06 0.07 0.10 0.14 0.16 0.16 0.18 0.19
0.00 0.00 0.00 0.00 0.00 0.00 0.00 0.00 0.00 0.00 0.00 0.01 0.01 0.03 0.03 0.03 0.02 0.01 0.01 0.02 0.02 0.03 0.03 0.04 0.05 0.04 0.03 0.03 0.04 0.05 0.05 0.05 0.07 0.06 0.06 0.08 0.07 0.07 0.08 0.10 0.13 0.16 0.19 0.19
0.00 0.00 0.00 0.00 0.00 0.00 0.00 0.00 0.00 0.01 0.01 0.01 0.02 0.03 0.02 0.01 0.00 0.01 0.01 0.01 0.01 0.02 0.02 0.02 0.03 0.03 0.02 0.02 0.02 0.03 0.03 0.04 0.05 0.05 0.06 0.09 0.08 0.08 0.09 0.12 0.13 0.15 0.21 0.25
0.00 0.00 0.00 0.00 0.00 0.00 0.00 0.00 0.00 0.00 0.01 0.02 0.03 0.03 0.01 0.01 0.01 0.01 0.01 0.01 0.01 0.01 0.01 0.01 0.02 0.02 0.02 0.01 0.01 0.02 0.03 0.02 0.02 0.02 0.04 0.06 0.07 0.08 0.07 0.08 0.10 0.12 0.15 0.17
0.00 0.00 0.00 0.00 0.00 0.00 0.00 0.00 0.00 0.00 0.01 0.02 0.01 0.01 0.01 0.01 0.01 0.01 0.01 0.01 0.01 0.01 0.01 0.01 0.01 0.01 0.01 0.01 0.01 0.01 0.02 0.02 0.02 0.01 0.02 0.02 0.03 0.05 0.06 0.07 0.08 0.10 0.10 0.10
0.00 0.00 0.00 0.00 0.00 0.00 0.00 0.00 0.00 0.00 0.00 0.01 0.01 0.02 0.01 0.01 0.01 0.01 0.01 0.01 0.00 0.01 0.01 0.01 0.01 0.01 0.00 0.00 0.00 0.00 0.01 0.02 0.02 0.02 0.03 0.03 0.02 0.02 0.03 0.06 0.06 0.06 0.05 0.06
0.00 0.00 0.00 0.00 0.00 0.00 0.00 0.00 0.00 0.00 0.00 0.00 0.00 0.01 0.01 0.00 0.01 0.01 0.01 0.01 0.01 0.01 0.00 0.00 0.01 0.00 0.00 0.00 0.00 0.00 0.00 0.00 0.00 0.00 0.01 0.03 0.03 0.03 0.04 0.05 0.04 0.03 0.02 0.02
0.00 0.00 0.00 0.00 0.00 0.00 0.00 0.00 0.00 0.00 0.00 0.00 0.00 0.00 0.00 0.00 0.01 0.02 0.01 0.00 0.01 0.01 0.00 0.00 0.01 0.00 0.00 0.00 0.00 0.00 0.00 0.00 0.00 0.00 0.00 0.00 0.01 0.01 0.02 0.02 0.03 0.02 0.01 0.01
0.00 0.00 0.00 0.00 0.00 0.00 0.00 0.00 0.00 0.00 0.00 0.00 0.00 0.00 0.00 0.00 0.01 0.02 0.01 0.00 0.00 0.01 0.00 0.00 0.00 0.00 0.00 0.00 0.00 0.00 0.00 0.00 0.00 0.00 0.00 0.00 0.00 0.00 0.00 0.01 0.01 0.01 0.01 0.01
0.00 0.00 0.00 0.00 0.00 0.00 0.00 0.00 0.00 0.00 0.00 0.00 0.00 0.00 0.00 0.00 0.00 0.00 0.01 0.01 0.01 0.01 0.00 0.00 0.00 0.00 0.00 0.00 0.00 0.00 0.00 0.00 0.00 0.00 0.00 0.00 0.00 0.00 0.00 0.00 0.01 0.01 0.01 0.01
0.00 0.00 0.00 0.00 0.00 0.00 0.00 0.00 0.00 0.00 0.00 0.00 0.00 0.00 0.00 0.00 0.00 0.00 0.00 0.00 0.01 0.01 0.01 0.00 0.00 0.00 0.00 0.00 0.00 0.00 0.00 0.00 0.00 0.00 0.00 0.00 0.00 0.00 0.00 0.00 0.00 0.01 0.01 0.01
0.00 0.00 0.00 0.00 0.00 0.00 0.00 0.00 0.00 0.00 0.00 0.00 0.00 0.00 0.00 0.00 0.00 0.00 0.01 0.01 0.00 0.00 0.01 0.00 0.00 0.00 0.00 0.00 0.00 0.00 0.00 0.00 0.00 0.00 0.00 0.00 0.00 0.00 0.00 0.00 0.00 0.00 0.00 0.01
0.00 0.00 0.00 0.00 0.00 0.00 0.00 0.00 0.00 0.00 0.00 0.00 0.00 0.00 0.00 0.00 0.00 0.00 0.00 0.00 0.00 0.00 0.01 0.01 0.01 0.00 0.01 0.00 0.00 0.00 0.00 0.00 0.00 0.00 0.00 0.00 0.01 0.01 0.01 0.00 0.00 0.00 0.00 0.01
0.00 0.00 0.00 0.00 0.00 0.00 0.00 0.00 0.00 0.00 0.00 0.00 0.00 0.00 0.00 0.00 0.00 0.00 0.00 0.00 0.00 0.00 0.00 0.00 0.00 0.01 0.00 0.00 0.00 0.00 0.00 0.00 0.00 0.00 0.00 0.00 0.01 0.01 0.01 0.00 0.00 0.00 0.00 0.00
0.00 0.00 0.00 0.00 0.00 0.00 0.00 0.00 0.00 0.00 0.00 0.00 0.00 0.00 0.00 0.00 0.00 0.00 0.00 0.00 0.00 0.00 0.00 0.00 0.00 0.00 0.00 0.00 0.00 0.00 0.00 0.00 0.00 0.00 0.00 0.00 0.00 0.01 0.00 0.00 0.00 0.00 0.00 0.00
MSLP
1015.17 1016.32 1017.21 1017.80 1018.11 1018.22 1018.21 1018.20 1018.29 1018.52 1018.89 1019.37 1019.87 1020.32 1020.63 1020.73 1020.61 1020.30 1019.83 1019.26 1018.65 1018.07 1017.51 1017.00 1016.49 1015.96 1015.37 1014.71 1013.98 1013.22 1012.48 1011.80 1011.26 1010.88 1010.68 1010.64 1010.74 1010.92 1011.14 1011.36 1011.57 1011.77 1011.98 1012.23
1016.51 1017.57 1018.35 1018.82 1019.03 1019.06 1019.03 1019.05 1019.22 1019.55 1020.04 1020.63 1021.21 1021.69 1021.98 1022.01 1021.79 1021.35 1020.74 1020.06 1019.36 1018.71 1018.13 1017.61 1017.11 1016.59 1015.99 1015.31 1014.55 1013.73 1012.91 1012.16 1011.53 1011.06 1010.78 1010.67 1010.70 1010.83 1011.00 1011.19 1011.37 1011.57 1011.78 1012.05
1017.65 1018.56 1019.19 1019.52 1019.63 1019.61 1019.59 1019.68 1019.95 1020.41 1021.02 1021.71 1022.36 1022.85 1023.10 1023.06 1022.73 1022.16 1021.44 1020.66 1019.89 1019.20 1018.61 1018.10 1017.62 1017.12 1016.56 1015.88 1015.11 1014.26 1013.40 1012.60 1011.91 1011.39 1011.04 1010.87 1010.84 1010.91 1011.04 1011.20 1011.37 1011.56 1011.78 1012.06
1018.57 1019.29 1019.73 1019.93 1019.95 1019.91 1019.93 1020.11 1020.51 1021.10 1021.84 1022.62 1023.32 1023.82 1024.03 1023.91 1023.48 1022.80 1021.98 1021.12 1020.30 1019.58 1018.99 1018.50 1018.05 1017.59 1017.05 1016.40 1015.64 1014.79 1013.92 1013.09 1012.37 1011.80 1011.40 1011.18 1011.10 1011.13 1011.22 1011.36 1011.51 1011.69 1011.92 1012.19
1019.32 1019.82 1020.07 1020.14 1020.10 1020.07 1020.16 1020.46 1020.99 1021.73 1022.58 1023.44 1024.18 1024.67 1024.83 1024.63 1024.11 1023.35 1022.44 1021.52 1020.66 1019.92 1019.33 1018.85 1018.43 1018.00 1017.48 1016.86 1016.12 1015.29 1014.42 1013.59 1012.85 1012.26 1011.83 1011.57 1011.45 1011.44 1011.50 1011.61 1011.75 1011.91 1012.12 1012.38
1019.97 1020.25 1020.34 1020.30 1020.23 1020.23 1020.41 1020.84 1021.51 1022.36 1023.32 1024.24 1024.99 1025.45 1025.56 1025.29 1024.69 1023.85 1022.89 1021.92 1021.04 1020.29 1019.69 1019.22 1018.80 1018.38 1017.88 1017.27 1016.55 1015.73 1014.88 1014.06 1013.32 1012.72 1012.28 1011.99 1011.84 1011.79 1011.81 1011.89 1012.00 1012.14 1012.31 1012.54
1020.59 1020.68 1020.64 1020.53 1020.45 1020.52 1020.80 1021.34 1022.13 1023.08 1024.10 1025.04 1025.77 1026.19 1026.24 1025.90 1025.24 1024.36 1023.36 1022.37 1021.46 1020.70 1020.10 1019.61 1019.18 1018.74 1018.24 1017.63 1016.91 1016.11 1015.28 1014.48 1013.76 1013.16 1012.71 1012.40 1012.21 1012.13 1012.12 1012.15 1012.21 1012.31 1012.44 1012.62
1021.20 1021.16 1021.03 1020.89 1020.85 1020.99 1021.36 1022.00 1022.87 1023.88 1024.91 1025.83 1026.51 1026.87 1026.85 1026.45 1025.75 1024.84 1023.82 1022.82 1021.91 1021.14 1020.52 1020.00 1019.54 1019.08 1018.55 1017.92 1017.21 1016.43 1015.62 1014.84 1014.14 1013.56 1013.11 1012.79 1012.57 1012.45 1012.38 1012.36 1012.37 1012.41 1012.49 1012.61
1021.76 1021.66 1021.51 1021.39 1021.40 1021.61 1022.07 1022.77 1023.67 1024.68 1025.67 1026.53 1027.13 1027.40 1027.32 1026.87 1026.14 1025.22 1024.21 1023.22 1022.32 1021.55 1020.91 1020.36 1019.86 1019.36 1018.80 1018.16 1017.44 1016.68 1015.90 1015.16 1014.50 1013.94 1013.50 1013.16 1012.92 1012.75 1012.62 1012.53 1012.48 1012.45 1012.47 1012.53
1022.23 1022.13 1022.01 1021.95 1022.03 1022.31 1022.81 1023.53 1024.42 1025.37 1026.27 1027.03 1027.52 1027.70 1027.54 1027.06 1026.32 1025.42 1024.45 1023.50 1022.63 1021.86 1021.21 1020.64 1020.10 1019.56 1018.97 1018.32 1017.62 1016.89 1016.16 1015.47 1014.85 1014.33 1013.90 1013.55 1013.28 1013.05 1012.86 1012.70 1012.57 1012.47 1012.42 1012.42
1022.53 1022.48 1022.43 1022.45 1022.61 1022.93 1023.46 1024.15 1024.97 1025.81 1026.59 1027.21 1027.59 1027.67 1027.45 1026.95 1026.23 1025.38 1024.47 1023.58 1022.75 1022.01 1021.36 1020.78 1020.22 1019.66 1019.06 1018.43 1017.76 1017.08 1016.41 1015.80 1015.24 1014.76 1014.35 1014.00 1013.70 1013.42 1013.16 1012.92 1012.71 1012.54 1012.42 1012.37
1022.63 1022.68 1022.72 1022.83 1023.04 1023.39 1023.89 1024.52 1025.23 1025.94 1026.57 1027.04 1027.29 1027.28 1027.03 1026.53 1025.86 1025.08 1024.26 1023.45 1022.69 1022.00 1021.37 1020.79 1020.23 1019.67 1019.09 1018.49 1017.88 1017.28 1016.70 1016.17 1015.70 1015.27 1014.89 1014.54 1014.20 1013.87 1013.55 1013.23 1012.95 1012.71 1012.53 1012.43
1022.57 1022.72 1022.86 1023.03 1023.28 1023.62 1024.07 1024.60 1025.17 1025.72 1026.19 1026.52 1026.66 1026.59 1026.31 1025.85 1025.25 1024.57 1023.85 1023.14 1022.46 1021.83 1021.25 1020.69 1020.15 1019.62 1019.08 1018.54 1018.02 1017.51 1017.04 1016.61 1016.22 1015.85 1015.51 1015.16 1014.80 1014.43 1014.04 1013.66 1013.31 1013.02 1012.79 1012.65
1022.45 1022.68 1022.88 1023.09 1023.34 1023.64 1024.00 1024.41 1024.83 1025.22 1025.54 1025.74 1025.79 1025.68 1025.42 1025.02 1024.52 1023.95 1023.35 1022.74 1022.16 1021.60 1021.06 1020.54 1020.04 1019.54 1019.07 1018.61 1018.18 1017.78 1017.42 1017.10 1016.80 1016.50 1016.19 1015.85 1015.47 1015.06 1014.63 1014.20 1013.81 1013.47 1013.20 1013.03
1022.38 1022.66 1022.88 1023.09 1023.30 1023.53 1023.78 1024.05 1024.31 1024.55 1024.73 1024.83 1024.83 1024.72 1024.49 1024.17 1023.78 1023.33 1022.85 1022.35 1021.85 1021.36 1020.87 1020.39 1019.93 1019.49 1019.07 1018.70 1018.36 1018.08 1017.83 1017.60 1017.38 1017.15 1016.88 1016.55 1016.17 1015.74 1015.28 1014.82 1014.39 1014.03 1013.74 1013.55
1022.45 1022.73 1022.94 1023.11 1023.24 1023.37 1023.49 1023.62 1023.74 1023.85 1023.92 1023.95 1023.92 1023.82 1023.66 1023.43 1023.15 1022.82 1022.45 1022.05 1021.63 1021.19 1020.75 1020.30 1019.87 1019.47 1019.11 1018.81 1018.56 1018.36 1018.21 1018.08 1017.93 1017.75 1017.51 1017.20 1016.83 1016.39 1015.92 1015.45 1015.02 1014.64 1014.35 1014.15
1022.72 1022.96 1023.11 1023.20 1023.23 1023.24 1023.23 1023.23 1023.22 1023.22 1023.22 1023.20 1023.17 1023.11 1023.01 1022.88 1022.70 1022.48 1022.21 1021.89 1021.53 1021.13 1020.71 1020.28 1019.87 1019.50 1019.18 1018.92 1018.74 1018.61 1018.53 1018.46 1018.37 1018.24 1018.04 1017.75 1017.39 1016.97 1016.51 1016.06 1015.63 1015.27 1014.98 1014.77
1023.14 1023.30 1023.37 1023.36 1023.28 1023.18 1023.05 1022.93 1022.82 1022.74 1022.68 1022.65 1022.63 1022.61 1022.59 1022.54 1022.46 1022.32 1022.13 1021.87 1021.54 1021.17 1020.76 1020.33 1019.92 1019.55 1019.25 1019.02 1018.87 1018.78 1018.75 1018.72 1018.68 1018.58 1018.41 1018.16 1017.83 1017.44 1017.01 1016.59 1016.19 1015.85 1015.58 1015.38
1023.59 1023.67 1023.65 1023.54 1023.36 1023.15 1022.93 1022.72 1022.54 1022.40 1022.32 1022.29 1022.29 1022.32 1022.36 1022.39 1022.38 1022.31 1022.17 1021.94 1021.64 1021.27 1020.85 1020.41 1019.99 1019.61 1019.30 1019.07 1018.93 1018.86 1018.85 1018.85 1018.83 1018.77 1018.64 1018.42 1018.14 1017.79 1017.42 1017.04 1016.69 1016.39 1016.14 1015.94
1023.93 1023.93 1023.82 1023.63 1023.37 1023.09 1022.80 1022.54 1022.33 1022.17 1022.08 1022.06 1022.10 1022.17 1022.26 1022.34 1022.38 1022.36 1022.25 1022.05 1021.76 1021.39 1020.96 1020.50 1020.06 1019.66 1019.33 1019.09 1018.94 1018.87 1018.86 1018.87 1018.88 1018.84 1018.75 1018.59 1018.36 1018.07 1017.76 1017.44 1017.14 1016.88 1016.66 1016.47
1024.01 1023.95 1023.78 1023.53 1023.24 1022.92 1022.62 1022.34 1022.12 1021.98 1021.91 1021.91 1021.97 1022.08 1022.20 1022.32 1022.40 1022.40 1022.32 1022.13 1021.85 1021.48 1021.04 1020.57 1020.11 1019.69 1019.34 1019.08 1018.92 1018.84 1018.82 1018.84 1018.87 1018.87 1018.82 1018.71 1018.55 1018.33 1018.09 1017.84 1017.59 1017.37 1017.17 1016.98
1023.76 1023.65 1023.46 1023.20 1022.90 1022.60 1022.31 1022.06 1021.88 1021.77 1021.73 1021.76 1021.85 1021.98 1022.14 1022.27 1022.37 1022.39 1022.33 1022.16 1021.89 1021.53 1021.10 1020.63 1020.16 1019.73 1019.37 1019.09 1018.91 1018.82 1018.80 1018.82 1018.87 1018.90 1018.91 1018.86 1018.77 1018.63 1018.46 1018.27 1018.08 1017.89 1017.70 1017.52
1023.19 1023.05 1022.85 1022.61 1022.35 1022.09 1021.87 1021.69 1021.57 1021.51 1021.52 1021.59 1021.71 1021.87 1022.03 1022.18 1022.28 1022.32 1022.27 1022.13 1021.88 1021.54 1021.14 1020.69 1020.24 1019.81 1019.44 1019.15 1018.96 1018.86 1018.83 1018.87 1018.93 1019.01 1019.06 1019.08 1019.06 1019.00 1018.89 1018.76 1018.61 1018.45 1018.28 1018.10
1022.36 1022.21 1022.03 1021.83 1021.63 1021.46 1021.33 1021.24 1021.21 1021.23 1021.30 1021.41 1021.56 1021.72 1021.90 1022.05 1022.16 1022.21 1022.18 1022.06 1021.85 1021.55 1021.19 1020.77 1020.35 1019.94 1019.58 1019.29 1019.09 1018.98 1018.96 1019.00 1019.08 1019.19 1019.30 1019.38 1019.43 1019.43 1019.39 1019.31 1019.20 1019.06 1018.90 1018.71
1021.41 1021.26 1021.09 1020.95 1020.84 1020.76 1020.74 1020.77 1020.83 1020.94 1021.08 1021.24 1021.42 1021.60 1021.77 1021.92 1022.03 1022.09 1022.08 1022.00 1021.83 1021.58 1021.26 1020.90 1020.51 1020.14 1019.79 1019.51 1019.31 1019.19 1019.16 1019.20 1019.31 1019.44 1019.59 1019.72 1019.83 1019.89 1019.91 1019.88 1019.80 1019.68 1019.52 1019.32
1020.47 1020.30 1020.16 1020.07 1020.04 1020.08 1020.18 1020.32 1020.50 1020.70 1020.91 1021.12 1021.32 1021.51 1021.68 1021.83 1021.94 1022.00 1022.01 1021.96 1021.83 1021.64 1021.37 1021.06 1020.72 1020.38 1020.05 1019.78 1019.57 1019.44 1019.40 1019.44 1019.55 1019.70 1019.88 1020.05 1020.21 1020.33 1020.39 1020.40 1020.35 1020.24 1020.09 1019.91
Thickness
5778 5758 5746 5752 5757 5753 5746 5737 5730 5735 5742 5729 5715 5707 5705 5709 5710 5706 5705 5706 5708 5712 5719 5726 5730 5734 5738 5741 5745 5750 5756 5761 5764 5766 5766 5768 5770 5770 5770 5769 5769 5769 5766 5764
5752 5743 5756 5761 5757 5748 5738 5727 5721 5726 5733 5721 5703 5694 5694 5694 5692 5691 5689 5690 5692 5698 5704 5709 5714 5718 5721 5725 5730 5736 5741 5748 5753 5756 5759 5762 5764 5764 5763 5763 5761 5761 5760 5758
5740 5744 5759 5752 5741 5734 5728 5721 5719 5716 5718 5713 5698 5678 5675 5680 5681 5681 5680 5678 5679 5683 5686 5691 5696 5700 5705 5710 5716 5722 5727 5734 5740 5746 5750 5752 5752 5752 5751 5752 5753 5753 5752 5752
5739 5744 5746 5737 5730 5727 5716 5728 5724 5717 5700 5684 5687 5657 5655 5661 5663 5666 5665 5665 5666 5669 5673 5676 5681 5684 5689 5695 5702 5708 5714 5720 5727 5734 5738 5740 5741 5742 5743 5745 5745 5745 5744 5744
5731 5735 5731 5724 5725 5727 5722 5727 5719 5711 5694 5675 5669 5649 5641 5649 5647 5649 5652 5654 5655 5658 5661 5664 5667 5670 5676 5683 5689 5694 5700 5707 5714 5721 5728 5732 5734 5735 5736 5736 5736 5736 5736 5736
5733 5740 5735 5728 5730 5729 5723 5716 5706 5690 5674 5652 5650 5639 5628 5632 5632 5637 5642 5644 5646 5649 5652 5654 5657 5660 5664 5671 5676 5682 5687 5694 5702 5708 5715 5720 5723 5725 5726 5726 5726 5726 5726 5727
5717 5723 5730 5730 5717 5717 5707 5686 5667 5658 5643 5639 5646 5633 5624 5630 5633 5631 5632 5634 5638 5640 5643 5645 5648 5650 5654 5659 5665 5670 5676 5682 5689 5696 5703 5708 5712 5715 5717 5718 5718 5717 5717 5718
5701 5697 5716 5720 5712 5703 5697 5680 5655 5644 5637 5634 5636 5624 5623 5632 5632 5631 5630 5630 5632 5634 5636 5637 5640 5643 5646 5651 5655 5660 5665 5671 5678 5685 5691 5697 5701 5704 5706 5708 5709 5710 5710 5711
5698 5696 5717 5719 5715 5706 5690 5677 5674 5651 5644 5628 5623 5624 5627 5632 5629 5628 5628 5627 5628 5629 5631 5632 5636 5638 5641 5644 5648 5652 5657 5662 5669 5676 5681 5686 5689 5692 5695 5698 5700 5702 5703 5703
5712 5697 5707 5713 5709 5702 5692 5681 5659 5645 5631 5619 5620 5617 5613 5619 5620 5622 5622 5622 5623 5625 5628 5629 5631 5634 5636 5639 5643 5647 5651 5655 5661 5667 5672 5677 5680 5684 5687 5690 5691 5693 5694 5696
5717 5695 5694 5695 5687 5681 5680 5671 5655 5640 5633 5618 5610 5612 5625 5620 5620 5619 5620 5620 5621 5622 5625 5626 5628 5631 5634 5637 5639 5642 5646 5650 5654 5659 5664 5668 5672 5676 5679 5681 5683 5685 5687 5689
5711 5690 5679 5687 5695 5695 5683 5672 5656 5636 5628 5622 5611 5612 5633 5627 5624 5621 5620 5621 5622 5622 5624 5626 5627 5629 5631 5633 5636 5638 5642 5645 5649 5653 5657 5661 5665 5668 5670 5672 5676 5679 5681 5682
5710 5689 5669 5669 5673 5681 5678 5674 5663 5645 5628 5618 5610 5615 5634 5628 5625 5624 5622 5622 5622 5623 5624 5625 5627 5628 5630 5632 5634 5636 5639 5641 5645 5649 5651 5654 5657 5660 5663 5665 5669 5672 5674 5675
5714 5690 5678 5671 5669 5673 5671 5670 5665 5647 5626 5622 5621 5623 5628 5627 5625 5625 5624 5624 5624 5624 5624 5625 5626 5628 5630 5632 5633 5634 5636 5639 5642 5644 5646 5648 5651 5654 5656 5659 5662 5665 5667 5668
5712 5692 5691 5688 5688 5683 5675 5670 5664 5653 5642 5629 5629 5628 5629 5630 5628 5627 5627 5626 5626 5626 5627 5627 5628 5629 5631 5631 5632 5633 5634 5636 5638 5640 5642 5643 5647 5649 5652 5654 5656 5658 5660 5662
5707 5696 5692 5687 5688 5683 5674 5671 5666 5658 5652 5642 5636 5631 5637 5635 5631 5628 5627 5627 5626 5626 5628 5629 5630 5630 5631 5632 5632 5632 5633 5634 5636 5637 5638 5640 5642 5645 5647 5649 5650 5652 5654 5656
5702 5695 5683 5674 5684 5678 5664 5671 5667 5661 5658 5649 5636 5636 5639 5634 5631 5629 5629 5628 5628 5628 5629 5629 5630 5631 5633 5633 5633 5632 5632 5633 5633 5634 5635 5636 5638 5639 5641 5644 5646 5647 5648 5650
5704 5691 5676 5673 5675 5662 5672 5685 5679 5667 5661 5657 5651 5646 5643 5638 5635 5634 5634 5632 5631 5631 5631 5632 5632 5633 5634 5635 5634 5634 5633 5632 5631 5630 5631 5632 5633 5635 5637 5639 5640 5641 5642 5643
5708 5695 5679 5667 5666 5670 5677 5684 5679 5666 5657 5660 5654 5649 5646 5641 5634 5631 5637 5637 5635 5634 5635 5634 5635 5635 5635 5635 5635 5633 5632 5630 5629 5628 5628 5629 5630 5630 5631 5633 5633 5635 5636 5636
5705 5693 5679 5673 5671 5666 5679 5689 5689 5673 5654 5662 5658 5652 5646 5639 5622 5624 5637 5638 5638 5638 5638 5638 5638 5638 5637 5636 5636 5633 5631 5629 5628 5627 5627 5626 5626 5626 5626 5627 5628 5629 5629 5630
5696 5689 5681 5674 5671 5675 5691 5695 5687 5657 5657 5667 5662 5655 5649 5639 5633 5636 5641 5641 5640 5640 5641 5641 5639 5638 5638 5638 5637 5634 5632 5630 5629 5628 5626 5625 5624 5623 5623 5622 5623 5623 5623 5624
5696 5687 5682 5673 5672 5679 5699 5693 5678 5675 5677 5672 5665 5660 5655 5650 5648 5647 5645 5643 5643 5642 5643 5642 5640 5639 5640 5641 5639 5636 5634 5633 5632 5629 5626 5624 5622 5622 5620 5619 5618 5618 5617 5617
5705 5703 5694 5690 5690 5703 5704 5701 5698 5690 5681 5675 5669 5666 5662 5656 5652 5650 5647 5646 5646 5645 5644 5644 5642 5642 5642 5643 5641 5638 5638 5637 5633 5630 5626 5623 5621 5619 5617 5615 5614 5613 5612 5611
5718 5715 5706 5702 5705 5708 5707 5705 5701 5695 5688 5682 5677 5672 5666 5660 5656 5653 5649 5648 5648 5648 5647 5646 5645 5644 5643 5644 5644 5643 5642 5640 5636 5631 5627 5624 5621 5617 5615 5613 5611 5609 5607 5606
5721 5719 5708 5704 5709 5708 5707 5705 5701 5697 5691 5686 5681 5676 5670 5665 5660 5657 5653 5652 5651 5650 5650 5649 5647 5646 5646 5647 5647 5646 5644 5642 5637 5632 5629 5625 5621 5618 5614 5611 5608 5607 5605 5603
5723 5719 5710 5707 5713 5707 5707 5708 5705 5698 5692 5687 5682 5677 5674 5669 5665 5662 5658 5656 5654 5653 5653 5652 5651 5650 5650 5650 5649 5648 5647 5644 5639 5634 5630 5626 5623 5619 5615 5612 5609 5607 5606 5604